Location: Newark
(46.7636°N, 1.8358°W)
Time: 00:28:09
(UTC+00:00)

Vanguard 2 Rocket - Pass Details

Date: 18 October 2019
Orbit: 554 x 3326 km, 32.9° (Epoch: 11 November)

Event Time Altitude Azimuth Distance (km) Brightness Sun altitude
Rises 12:13:35 0° 256° (WSW) 7,196 11.7 33.4°
Reaches altitude 10° 12:18:32 10° 252° (WSW) 6,266 11.6 33.3°
Maximum altitude 12:37:30 51° 185° (S) 3,551 11.6 32.7°
Drops below altitude 10° 12:51:46 10° 116° (ESE) 4,840 10.8 32.1°
Sets 12:55:02 0° 111° (ESE) 5,522 10.9 31.9°
